QFA333 YSSY-YMML

Flight info

Callsign QFA333
Flight time 1h 9m
Altitude 38000
Route MARUB7/34R WOL H65 LEECE Q29 ML
Aircraft A333/H-SDE3GHIJ2J3J5M1RVWXY/LB2D1

Departure

Time 2026-05-04 08:28
Airport Sydney Kingsford Smith International Airport (YSSY)

Arrival

Time 2026-05-04 09:37
Airport Melbourne Airport (YMML)
Time Latitude Longitude Altitude Speed Heading
2026-05-04 07:51 -33.93157 151.17628 34 ft 0 kts 114°
2026-05-04 08:11 -33.93152 151.17575 31 ft 4 kts 93°
2026-05-04 08:11 -33.93146 151.17551 30 ft 4 kts 123°
2026-05-04 08:12 -33.93128 151.17530 30 ft 4 kts 156°
2026-05-04 08:12 -33.93107 151.17521 34 ft 0 kts 167°
2026-05-04 08:17 -33.93111 151.17522 33 ft 1 kts 167°
2026-05-04 08:17 -33.93129 151.17527 30 ft 4 kts 167°
2026-05-04 08:19 -33.93669 151.17652 33 ft 13 kts 151°
2026-05-04 08:19 -33.93753 151.17689 33 ft 13 kts 167°
2026-05-04 08:20 -33.93836 151.17726 33 ft 13 kts 135°
2026-05-04 08:20 -33.93907 151.17781 33 ft 12 kts 165°
2026-05-04 08:20 -33.93998 151.17805 32 ft 16 kts 167°
2026-05-04 08:20 -33.94121 151.17838 33 ft 20 kts 167°
2026-05-04 08:21 -33.94218 151.17862 34 ft 23 kts 168°
2026-05-04 08:21 -33.94441 151.17907 34 ft 24 kts 193°
2026-05-04 08:21 -33.94597 151.17902 34 ft 23 kts 168°
2026-05-04 08:21 -33.94751 151.17941 34 ft 22 kts 168°
2026-05-04 08:22 -33.94904 151.17981 34 ft 22 kts 168°
2026-05-04 08:22 -33.95006 151.18008 34 ft 22 kts 167°
2026-05-04 08:24 -33.95314 151.18718 33 ft 17 kts 162°
2026-05-04 08:24 -33.95441 151.18751 33 ft 20 kts 166°
2026-05-04 08:24 -33.95590 151.18791 33 ft 23 kts 168°
2026-05-04 08:24 -33.95760 151.18833 34 ft 26 kts 168°
2026-05-04 08:25 -33.95946 151.18883 34 ft 28 kts 167°
2026-05-04 08:25 -33.96147 151.18935 34 ft 31 kts 167°
2026-05-04 08:25 -33.96362 151.18991 34 ft 32 kts 168°
2026-05-04 08:25 -33.96576 151.19047 33 ft 31 kts 167°
2026-05-04 08:26 -33.96788 151.19066 34 ft 30 kts 181°
2026-05-04 08:27 -33.96637 151.19262 27 ft 86 kts 347°
2026-05-04 08:28 -33.95867 151.19056 43 ft 138 kts 351°
2026-05-04 08:28 -33.94907 151.18797 575 ft 144 kts 352°
2026-05-04 08:28 -33.93931 151.18826 1218 ft 145 kts 25°
2026-05-04 08:28 -33.93229 151.19763 1474 ft 166 kts 65°
2026-05-04 08:29 -33.93258 151.21224 1761 ft 191 kts 104°
2026-05-04 08:29 -33.93737 151.22752 2140 ft 196 kts 98°
2026-05-04 08:29 -33.93899 151.24436 2359 ft 213 kts 85°
2026-05-04 08:31 -33.96236 151.39062 5832 ft 301 kts 160°
2026-05-04 08:33 -34.07514 151.30357 10417 ft 311 kts 227°
2026-05-04 08:33 -34.09187 151.28570 10659 ft 331 kts 227°
2026-05-04 08:35 -34.22421 151.14610 14315 ft 375 kts 226°
2026-05-04 08:35 -34.24390 151.12526 14873 ft 378 kts 226°
2026-05-04 08:35 -34.26377 151.10424 15408 ft 380 kts 226°
2026-05-04 08:35 -34.28374 151.08308 15925 ft 384 kts 226°
2026-05-04 08:37 -34.40620 150.95300 18974 ft 398 kts 227°
2026-05-04 08:37 -34.42709 150.93077 19433 ft 400 kts 227°
2026-05-04 08:37 -34.44802 150.90847 19889 ft 402 kts 227°
2026-05-04 08:38 -34.46902 150.88608 20347 ft 403 kts 227°
2026-05-04 08:38 -34.49011 150.86357 20807 ft 405 kts 227°
2026-05-04 08:38 -34.51130 150.84095 21238 ft 407 kts 228°
2026-05-04 08:40 -34.63842 150.65872 24090 ft 408 kts 242°
2026-05-04 08:40 -34.65503 150.63054 24414 ft 411 kts 242°
2026-05-04 08:40 -34.67181 150.60228 24728 ft 414 kts 242°
2026-05-04 08:41 -34.68874 150.57392 25027 ft 416 kts 242°
2026-05-04 08:41 -34.70581 150.54543 25350 ft 418 kts 242°
2026-05-04 08:41 -34.72299 150.51682 25673 ft 420 kts 242°
2026-05-04 08:41 -34.74025 150.48807 25972 ft 422 kts 242°
2026-05-04 08:42 -34.75759 150.45915 26293 ft 424 kts 242°
2026-05-04 08:42 -34.77500 150.43010 26575 ft 427 kts 242°
2026-05-04 08:42 -34.79251 150.40084 26866 ft 428 kts 242°
2026-05-04 08:42 -34.81005 150.37149 27139 ft 430 kts 242°
2026-05-04 08:43 -34.82767 150.34199 27421 ft 432 kts 242°
2026-05-04 08:43 -34.84538 150.31229 27687 ft 435 kts 242°
2026-05-04 08:43 -34.86316 150.28243 27962 ft 437 kts 242°
2026-05-04 08:43 -34.88101 150.25242 28289 ft 438 kts 242°
2026-05-04 08:44 -34.89889 150.22238 28591 ft 439 kts 242°
2026-05-04 08:44 -34.91684 150.19222 28827 ft 441 kts 242°
2026-05-04 08:46 -35.04439 149.97706 30691 ft 452 kts 242°
2026-05-04 08:46 -35.06277 149.94595 30940 ft 452 kts 242°
2026-05-04 08:46 -35.08117 149.91476 31185 ft 453 kts 242°
2026-05-04 08:46 -35.09958 149.88353 31440 ft 454 kts 243°
2026-05-04 08:47 -35.11795 149.85235 31814 ft 451 kts 243°
2026-05-04 08:47 -35.13620 149.82138 32202 ft 448 kts 243°
2026-05-04 08:47 -35.15439 149.79048 32509 ft 447 kts 243°
2026-05-04 08:47 -35.17251 149.75965 32841 ft 445 kts 243°
2026-05-04 08:48 -35.19051 149.72898 33188 ft 443 kts 243°
2026-05-04 08:48 -35.20840 149.69848 33556 ft 441 kts 243°
2026-05-04 08:48 -35.22626 149.66800 33876 ft 439 kts 243°
2026-05-04 08:48 -35.24397 149.63773 34148 ft 437 kts 243°
2026-05-04 08:49 -35.26163 149.60751 34384 ft 436 kts 243°
2026-05-04 08:50 -35.36680 149.42703 35617 ft 434 kts 243°
2026-05-04 08:50 -35.38433 149.39686 35792 ft 434 kts 243°
2026-05-04 08:51 -35.40184 149.36672 35967 ft 434 kts 243°
2026-05-04 08:51 -35.41937 149.33650 36159 ft 434 kts 243°
2026-05-04 08:51 -35.43686 149.30632 36305 ft 434 kts 243°
2026-05-04 08:51 -35.45437 149.27610 36468 ft 435 kts 243°
2026-05-04 08:52 -35.47186 149.24586 36641 ft 434 kts 243°
2026-05-04 08:52 -35.48933 149.21564 36795 ft 434 kts 243°
2026-05-04 08:52 -35.50682 149.18538 36980 ft 434 kts 243°
2026-05-04 08:52 -35.52424 149.15522 37155 ft 433 kts 243°
2026-05-04 08:53 -35.54143 149.12542 37324 ft 433 kts 243°
2026-05-04 08:54 -35.66304 148.91379 38057 ft 433 kts 243°
2026-05-04 08:55 -35.69770 148.85328 38051 ft 432 kts 243°
2026-05-04 08:55 -35.73231 148.79274 38066 ft 432 kts 243°
2026-05-04 09:01 -36.09407 148.15179 38067 ft 436 kts 243°
2026-05-04 09:01 -36.12859 148.08999 38067 ft 437 kts 243°
2026-05-04 09:02 -36.16312 148.02823 38063 ft 437 kts 243°
2026-05-04 09:02 -36.19766 147.96643 38063 ft 437 kts 243°
2026-05-04 09:03 -36.23215 147.90455 38073 ft 436 kts 243°
2026-05-04 09:03 -36.26653 147.84276 38078 ft 435 kts 243°
2026-05-04 09:04 -36.30084 147.78094 38058 ft 436 kts 243°
2026-05-04 09:04 -36.33525 147.71882 38059 ft 437 kts 243°
2026-05-04 09:05 -36.36960 147.65661 38053 ft 437 kts 243°
2026-05-04 09:05 -36.40394 147.59429 38077 ft 437 kts 243°
2026-05-04 09:06 -36.43826 147.53186 38046 ft 438 kts 243°
2026-05-04 09:07 -36.55254 147.32320 37840 ft 438 kts 243°
2026-05-04 09:08 -36.56956 147.29205 37415 ft 434 kts 243°
2026-05-04 09:08 -36.58647 147.26106 36980 ft 432 kts 243°
2026-05-04 09:08 -36.60331 147.23015 36472 ft 432 kts 243°
2026-05-04 09:08 -36.62015 147.19920 35967 ft 432 kts 243°
2026-05-04 09:09 -36.63702 147.16816 35410 ft 433 kts 244°
2026-05-04 09:09 -36.65390 147.13704 34841 ft 435 kts 244°
2026-05-04 09:09 -36.67091 147.10566 34302 ft 437 kts 244°
2026-05-04 09:09 -36.68797 147.07415 33623 ft 440 kts 244°
2026-05-04 09:10 -36.70513 147.04246 32985 ft 441 kts 244°
2026-05-04 09:10 -36.72232 147.01073 32394 ft 442 kts 244°
2026-05-04 09:10 -36.73955 146.97890 31771 ft 443 kts 245°
2026-05-04 09:10 -36.75677 146.94703 31133 ft 444 kts 245°
2026-05-04 09:11 -36.77401 146.91516 30649 ft 441 kts 245°
2026-05-04 09:11 -36.79108 146.88358 30234 ft 437 kts 245°
2026-05-04 09:11 -36.80797 146.85231 29759 ft 434 kts 245°
2026-05-04 09:11 -36.82474 146.82121 29313 ft 430 kts 245°
2026-05-04 09:12 -36.84116 146.79074 28858 ft 426 kts 245°
2026-05-04 09:12 -36.85761 146.76018 28415 ft 422 kts 245°
2026-05-04 09:14 -36.96868 146.55261 25418 ft 401 kts 245°
2026-05-04 09:14 -36.98411 146.52366 24982 ft 399 kts 245°
2026-05-04 09:14 -36.99943 146.49489 24554 ft 396 kts 245°
2026-05-04 09:14 -37.01468 146.46623 24128 ft 395 kts 245°
2026-05-04 09:15 -37.02984 146.43769 23702 ft 393 kts 245°
2026-05-04 09:15 -37.04492 146.40926 23228 ft 392 kts 244°
2026-05-04 09:15 -37.05999 146.38086 22805 ft 388 kts 243°
2026-05-04 09:15 -37.07486 146.35281 22385 ft 385 kts 243°
2026-05-04 09:17 -37.19006 146.13507 19160 ft 364 kts 241°
2026-05-04 09:18 -37.20417 146.10827 18768 ft 362 kts 241°
2026-05-04 09:18 -37.21782 146.08232 18366 ft 360 kts 240°
2026-05-04 09:18 -37.23156 146.05619 17933 ft 358 kts 241°
2026-05-04 09:18 -37.24520 146.03022 17547 ft 355 kts 241°
2026-05-04 09:19 -37.25870 146.00451 17144 ft 351 kts 241°
2026-05-04 09:19 -37.27205 145.97910 16773 ft 347 kts 241°
2026-05-04 09:19 -37.28528 145.95391 16379 ft 344 kts 241°
2026-05-04 09:19 -37.29835 145.92899 16021 ft 340 kts 241°
2026-05-04 09:20 -37.31127 145.90436 15694 ft 336 kts 241°
2026-05-04 09:20 -37.32406 145.87997 15323 ft 333 kts 241°
2026-05-04 09:20 -37.33677 145.85575 14957 ft 331 kts 241°
2026-05-04 09:20 -37.34940 145.83171 14593 ft 328 kts 241°
2026-05-04 09:21 -37.36190 145.80787 14227 ft 325 kts 241°
2026-05-04 09:21 -37.37431 145.78418 13858 ft 324 kts 242°
2026-05-04 09:21 -37.38671 145.76054 13460 ft 323 kts 241°
2026-05-04 09:21 -37.39899 145.73707 13104 ft 319 kts 241°
2026-05-04 09:22 -37.41116 145.71377 12729 ft 318 kts 241°
2026-05-04 09:22 -37.42330 145.69049 12369 ft 318 kts 241°
2026-05-04 09:22 -37.43540 145.66730 12014 ft 317 kts 241°
2026-05-04 09:22 -37.44752 145.64419 11663 ft 317 kts 240°
2026-05-04 09:23 -37.46024 145.62158 11296 ft 316 kts 239°
2026-05-04 09:23 -37.47320 145.59926 11001 ft 314 kts 239°
2026-05-04 09:23 -37.48587 145.57755 10909 ft 301 kts 239°
2026-05-04 09:23 -37.49807 145.55666 10775 ft 290 kts 239°
2026-05-04 09:25 -37.57409 145.42562 9507 ft 253 kts 240°
2026-05-04 09:25 -37.58457 145.40748 9254 ft 251 kts 240°
2026-05-04 09:26 -37.59471 145.38995 9002 ft 251 kts 240°
2026-05-04 09:26 -37.60497 145.37220 8740 ft 250 kts 240°
2026-05-04 09:26 -37.61518 145.35451 8488 ft 249 kts 240°
2026-05-04 09:26 -37.62538 145.33685 8238 ft 248 kts 240°
2026-05-04 09:27 -37.63554 145.31926 7981 ft 248 kts 240°
2026-05-04 09:27 -37.64570 145.30164 7733 ft 248 kts 240°
2026-05-04 09:27 -37.65585 145.28404 7469 ft 248 kts 241°
2026-05-04 09:27 -37.66598 145.26646 7206 ft 247 kts 241°
2026-05-04 09:28 -37.67603 145.24899 6956 ft 245 kts 240°
2026-05-04 09:28 -37.68602 145.23166 6711 ft 243 kts 240°
2026-05-04 09:28 -37.69591 145.21450 6453 ft 240 kts 240°
2026-05-04 09:28 -37.70570 145.19749 6191 ft 238 kts 240°
2026-05-04 09:29 -37.71527 145.18089 6104 ft 229 kts 240°
2026-05-04 09:29 -37.72450 145.16492 6016 ft 223 kts 240°
2026-05-04 09:29 -37.73363 145.14894 5905 ft 227 kts 241°
2026-05-04 09:29 -37.74287 145.13278 5652 ft 226 kts 241°
2026-05-04 09:30 -37.75208 145.11672 5418 ft 225 kts 241°
2026-05-04 09:30 -37.76126 145.10072 5188 ft 225 kts 241°
2026-05-04 09:30 -37.77028 145.08499 4956 ft 223 kts 241°
2026-05-04 09:30 -37.77940 145.06909 4735 ft 223 kts 242°
2026-05-04 09:31 -37.78851 145.05317 4499 ft 223 kts 242°
2026-05-04 09:31 -37.79756 145.03735 4273 ft 222 kts 242°
2026-05-04 09:31 -37.80656 145.02162 4058 ft 220 kts 243°
2026-05-04 09:31 -37.81380 145.00470 3872 ft 220 kts 255°
2026-05-04 09:32 -37.81792 144.98627 3602 ft 216 kts 261°
2026-05-04 09:32 -37.82114 144.96786 3394 ft 213 kts 262°
2026-05-04 09:34 -37.80707 144.86271 2488 ft 205 kts 343°
2026-05-04 09:34 -37.79246 144.85993 2453 ft 226 kts 346°
2026-05-04 09:34 -37.77620 144.85712 2144 ft 240 kts 347°
2026-05-04 09:34 -37.75966 144.85431 1824 ft 240 kts 347°
2026-05-04 09:35 -37.74360 144.85160 1480 ft 223 kts 347°
2026-05-04 09:35 -37.72907 144.84904 1240 ft 198 kts 351°
2026-05-04 09:35 -37.71619 144.84676 1055 ft 176 kts 352°
2026-05-04 09:35 -37.70464 144.84442 816 ft 162 kts 353°
2026-05-04 09:37 -37.66837 144.83914 392 ft 0 kts 22°
2026-05-04 09:38 -37.66826 144.83920 391 ft 4 kts 22°
2026-05-04 09:38 -37.66792 144.83937 394 ft 7 kts 22°
2026-05-04 09:38 -37.66745 144.83962 398 ft 8 kts 22°
2026-05-04 09:39 -37.66688 144.83991 397 ft 9 kts 21°
2026-05-04 09:39 -37.66622 144.84023 401 ft 11 kts 21°
2026-05-04 09:39 -37.66552 144.84061 406 ft 11 kts 24°
2026-05-04 09:39 -37.66477 144.84103 409 ft 12 kts 28°